Weather History for Belize, Belize

Change the Weather History Date:

Tuesday, August 7, 2012

  Actual Average Record
Temperature  
Mean Temperature 79 °F -  
Max Temperature 84 °F 89 °F 91 °F (2005)
Min Temperature 74 °F 76 °F 74 °F (2012)
Cooling Degree Days 14    
Growing Degree Days 29 (Base 50)    
Moisture  
Dew Point 77 °F    
Average Humidity 92    
Maximum Humidity 100    
Minimum Humidity 74    
Precipitation  
Precipitation 0.04 in 0.27 in - ()
Sea Level Pressure  
Sea Level Pressure 29.79 in    
Wind  
Wind Speed 7 mph ()    
Max Wind Speed 10 mph    
Max Gust Speed -    
Visibility 7.1 miles    
Events Rain , Thunderstorm    
Averages and records for this station are not official NWS values.
T = Trace of Precipitation, MM = Missing Value Source: Averaged Metar Reports

Daily Weather History Graph

Daily Weather History Graph

Search for Another Location

Airport:

Trip Planner

Search our weather history database for the weather conditions in past years. The results will help you decide how hot, cold, wet, or windy it might be!

Date:

Astronomy

Aug. 07, 2012 Rise Set
Actual Time 5:34 AM CST 6:23 PM CST
Civil Twilight 5:11 AM CST 6:46 PM CST
Nautical Twilight 4:44 AM CST 7:13 PM CST
Astronomical Twilight 4:17 AM CST 7:40 PM CST
Moon 10:09 PM CST (8/7) 10:19 AM CST (8/7)
Length of Visible Light 13h 34m
Length of Day
12h 49m
Waning Gibbous, 69% of the Moon is Illuminated
Aug 7
Waning Gibbous
Aug 9
Last Quarter
Aug 17
New
Aug 24
First Quarter
Aug 31
Full

Hourly Weather History & Observations

Time (CST) Temp. Heat Index Dew Point Humidity Pressure Visibility Wind Dir Wind Speed Gust Speed Precip Events Conditions
12:00 AM 80 °F - 77 °F 87% 29.87 in 12 mi WNW 6.9 mph - -   Mostly Cloudy
3:00 AM 78 °F - 76 °F 93% 29.82 in 12 mi WNW 6.9 mph - - Rain , Thunderstorm Thunderstorms and Rain
5:00 AM 77.0 °F - 77.0 °F 100% 29.83 in 5.0 mi NW 9.2 mph - N/A Rain , Thunderstorm Light Thunderstorms and Rain
6:00 AM 77 °F - 76 °F 97% 29.83 in 7 mi WNW 6.9 mph - - Rain Light Rain
6:00 AM 77.0 °F - 77.0 °F 100% 29.82 in 6.2 mi WNW 6.9 mph - N/A Rain Light Rain Showers
7:00 AM 77.0 °F - 77.0 °F 100% 29.83 in 6.2 mi WNW 8.1 mph - N/A Rain Light Rain
8:00 AM 78.8 °F - 77.0 °F 94% 29.83 in 6.2 mi WNW 9.2 mph - N/A   Mostly Cloudy
8:35 AM 78.8 °F - 77.0 °F 94% 29.83 in 6.2 mi WNW 10.4 mph - N/A   Mostly Cloudy
9:00 AM 78.8 °F - 77.0 °F 94% 29.83 in 6.2 mi WNW 8.1 mph - N/A   Mostly Cloudy
10:00 AM 80.6 °F 87.1 °F 77.0 °F 89% 29.83 in 6.2 mi WNW 8.1 mph - N/A Rain Light Rain Showers
10:30 AM 80.6 °F 87.1 °F 77.0 °F 89% 29.82 in 6.2 mi WNW 9.2 mph - N/A Rain Light Rain Showers
11:00 AM 84.2 °F 96.1 °F 78.8 °F 84% 29.81 in 6.2 mi WNW 10.4 mph - N/A   Mostly Cloudy
12:00 PM 84.2 °F 92.3 °F 75.2 °F 74% 29.78 in 6.2 mi NNW 10.4 mph - N/A Rain Light Rain Showers
1:00 PM 80.6 °F 88.1 °F 78.8 °F 94% 29.76 in 6.2 mi WNW 3.5 mph - N/A Rain Light Rain
2:00 PM 82.4 °F 90.9 °F 77.0 °F 84% 29.74 in 6.2 mi NNW 10.4 mph - N/A Rain Light Rain
3:00 PM 80.6 °F 88.1 °F 78.8 °F 94% 29.72 in 6.2 mi NNW 6.9 mph - N/A Rain Light Rain
4:00 PM 80.6 °F 88.1 °F 78.8 °F 94% 29.70 in 6.2 mi WNW 8.1 mph - N/A Rain Light Rain
5:00 PM 80.6 °F 88.1 °F 78.8 °F 94% 29.70 in 6.2 mi NW 8.1 mph - N/A Rain Light Rain
6:00 PM 80.6 °F 87.1 °F 77.0 °F 89% 29.69 in 6.2 mi WNW 8.1 mph - N/A Rain Light Rain
9:00 PM 78 °F - 76 °F 91% 29.71 in 12 mi WSW 8.1 mph - - Rain Light Rain